Terug naar catalogus

STARLINK-32243

ActiefCommunicatieVLEO
NORAD 60367·PAYLOAD·🇺🇸 United States

Gelanceerd Aug 4, 2024 vanaf Vandenberg Space Force Base

Loading…

Volgende Passages (komende 24 uur)

TLE

VersSource: CelesTrak SupGP

Epoch: Sep 14, 2026, 22:10 UTC

1 60367C 24138N   26257.92409722 -.00008875  00000+0 -28549-3 0  2574
2 60367  53.1570 149.5479 0001051  85.7894 340.3266 15.31697631    19

Volg STARLINK-32243 in realtime met AllMySat

Download on the App Store